Regional Weather Roundup
Issued by NWS Grand Forks, ND

Home | Current Version | Previous Version | Text Only | Print | Product List | Glossary On
Versions: 1 2 3 4 5 6 7 8 9 10 11 12 13 14 15 16 17 18 19 20 21 22 23 24 25 26 27 28 29 30 31 32 33 34 35 36 37 38 39 40 41 42 43 44 45 46 47 48 49 50
000
ASUS43 KFGF 240510
RWRFGF
PRAIRIE TO PINES  WEATHER ROUNDUP
NATIONAL WEATHER SERVICE EASTERN NORTH DAKOTA/GRAND FORKS ND
1200 AM CDT TUE APR 24 2018

 **SATELLITE DATA USED TO AUGMENT SKY COVER AT AUTOMATED STATIONS**
 *****  WEATHER ACROSS EASTERN NORTH DAKOTA  *****

CITY           SKY/WX    TMP DP  RH WIND       PRES   REMARKS
GRAND FORKS    FAIR      46  39  76 N10       30.23R
GRAND FRKS AFB NOT AVBL
GRAND FRKS NWS   N/A     48  38  67 N10       30.20R
DEVILS LAKE    CLOUDY    45  32  60 N16       30.29R
FARGO          CLOUDY    50  40  68 NE3       30.19R
WAHPETON ARPT  CLOUDY    52  37  58 N9        30.17R
$$

 ***** WEATHER ACROSS CENTRAL AND WESTERN NORTH DAKOTA  *****

CITY           SKY/WX    TMP DP  RH WIND       PRES   REMARKS
BISMARCK       LGT RAIN  45  41  86 N20       30.27R
MINOT          FAIR      43  25  49 NW13      30.32R
JAMESTOWN      CLOUDY    50  38  63 N14       30.22R
MINOT AFB      NOT AVBL
GARRISON         N/A     43  31  62 N6        30.31S
WILLISTON      FAIR      35  24  64 N5        30.37R
DICKINSON      RAIN      37  34  89 NE14G24   30.32R
HETTINGER      LGT SNOW  35  33  92 N20G32    30.30R FOG     WCI  24
$$

 *****  OTHER AIRPORT OBSERVATIONS IN OUR AREA  *****

CITY           SKY/WX    TMP DP  RH WIND       PRES   REMARKS
WALHALLA       FAIR      41  32  70 NW10      30.27R
GRAFTON AIRPOR FAIR      46  36  66 N9        30.26R
VALLEY CITY AR CLOUDY    50  41  71 N10G16    30.23S
CANDO          CLOUDY    41  30  65 N8        30.31R
CAVALIER APRT    N/A     45  36  70 N9        30.25R
GWINNER          N/A     52  43  71 N9        30.17S
SHEYENNE NWR     N/A     55  39  54 NE7       29.95
ROLLA          FAIR      39  30  70 N10       30.30S
 ***** THE ABOVE OBSERVATIONS ARE NON NWS ARE NOT QUALITY
       CONTROLLED AND MAY MIS-REPORT RAIN FOR SNOW...
$$

  *****  WEATHER ACROSS NORTHERN MINNESOTA  *****

CITY           SKY/WX    TMP DP  RH WIND       PRES   REMARKS
FLAG ISLAND    CLOUDY    43  28  56 NW9       30.19R
WARROAD        MOCLDY    46  34  61 NW5       30.20S
ROSEAU         FAIR      48  36  61 NW7       30.20S
HALLOCK        FAIR      46  34  61 N13       30.23R
THF RVR FALLS  MOCLDY    48  36  63 NW9       30.20F
BAUDETTE       FAIR      42  30  62 NW6       30.18R
WASKISH        FAIR      39  30  70 CALM      30.18S
CROOKSTON      FAIR      46  39  76 N10       30.22R
STEPHEN NDAWN    N/A     46  36  66 N8          N/A
GREENBUSH NDAW   N/A     43  36  75 NW7         N/A
$$
  *****  WEATHER ACROSS CENTRAL AND WEST MINNESOTA  *****

CITY           SKY/WX    TMP DP  RH WIND       PRES   REMARKS
FOSSTON        FAIR      45  34  65 N3        30.19S
BEMIDJI        FAIR      44  30  58 CALM      30.17S
PARK RAPIDS    FAIR      45  33  63 S3        30.17R
ELBOW LAKE     CLOUDY    51  37  57 NE7       30.16S
WADENA         MOCLDY    48  36  61 N8        30.17R
DETROIT LAKES  FAIR      46  34  61 N5        30.19S
MOORHEAD       CLOUDY    48  39  71 CALM      30.20S
FERGUS FALLS   CLOUDY    54  37  54 NE5       30.14S
MORRIS MN      CLOUDY    54  43  66 CALM      30.15S
STAPLES        FAIR      46  34  61 N7        30.16S
$$
  *****  WEATHER ELSEWHERE ACROSS MINNESOTA  *****

CITY           SKY/WX    TMP DP  RH WIND       PRES   REMARKS
DULUTH         FAIR      51  31  46 NW6       30.13R
INTRNTL FALLS  FAIR      35  30  82 CALM      30.16R
ELY            FAIR      34  27  75 CALM      30.15R
CLOQUET        FAIR      41  30  65 W6        30.13S
WHEATON        CLOUDY    54  43  66 N3        30.18S
BRAINERD       FAIR      51  32  48 N9        30.15R
HIBBING        FAIR      40  27  59 N5        30.14R
ALEXANDRIA     FAIR      53  39  59 N8        30.17R
SAINT CLOUD    FAIR      44  38  79 CALM      30.13S
MINNEAPOLIS    FAIR      55  40  56 NW5       30.13S
$$

  *****  WEATHER ACROSS SOUTH DAKOTA  *****

CITY           SKY/WX    TMP DP  RH WIND       PRES   REMARKS
SIOUX FALLS    MOCLDY    48  39  71 CALM      30.14S
BROOKINGS      CLOUDY    52  42  69 SE8       30.14F
WATERTOWN      CLOUDY    54  40  59 SE6       30.14S
HURON          CLOUDY    56  45  66 SE8       30.11S
SISSETON         N/A     53  44  71 NW5       30.16S
ABERDEEN       CLOUDY    55  44  66 NE14      30.14S
MITCHELL       CLOUDY    57  44  62 SE12      30.12S
PIERRE         LGT RAIN  57  42  57 SE10      30.06R
MOBRIDGE       CLOUDY    53  39  59 N16       30.13R
RAPID CITY     CLOUDY    38  31  76 NW38G48   30.21R
$$

  *****  SOME WEATHER IN NEARBY STATES *****

CITY           SKY/WX    TMP DP  RH WIND       PRES   REMARKS
GLASGOW MT     CLOUDY    40  26  57 NW7       30.41R
GREAT FALLS MT FAIR      36  20  52 S5        30.45R
CHEYENNE WY    FAIR      33  30  88 MISG      30.25R
SCOTTSBLUFF NE CLOUDY    40  36  86 NW21G29   30.28R
OMAHA NE       FAIR      54  31  41 CALM      30.10R
DES MOINES IA  FAIR      57  31  37 NE7       30.10R
DAVENPORT IA   FAIR      54  32  43 E7        30.09F
CHICAGO IL     CLOUDY    49  31  49 N5        30.09F
EAU CLAIRE WI  FAIR      45  32  60 CALM      30.12S
LA CROSSE WI   FAIR      49  34  56 CALM      30.12R
$$

  *****  SOME NATIONAL WEATHER *****

CITY           SKY/WX    TMP DP  RH WIND       PRES   REMARKS
LA GUARDIA NY  MOCLDY    50  42  74 S5        30.42F
RALEIGH NC     LGT RAIN  58  49  72 E16G28    30.16F
ATLANTA GA     LGT RAIN  61  61 100 NW6       29.86S
NEW ORLEANS LA MOCLDY    66  57  72 CALM      30.00F
OKLAHOMA CITY  FAIR      57  46  66 N3        30.06S
ALBUQUERQUE NM FAIR      68  25  19 S12       30.06S
SALT LAKE CITY FAIR      52  35  52 N7        30.18R
LOS ANGELES CA CLOUDY    56  52  86 S6        30.02R
BOISE ID       FAIR      51  29  42 SW5       30.22R
SEATTLE WA     FAIR      61  35  37 NE12      30.22R
$$

*** WEATHER ACROSS MANITOBA...SASKATCHEWAN AND ONTARIO ***
                ***ONTARIO***

CITY           SKY/WX    TMP DP  RH WIND       PRES   REMARKS
GERALDTON      PTCLDY    43  30  61 NW6       30.09R
THUNDER BAY    PTCLDY    36  28  75 W6        30.12R
SIOUX LOOKOUT  PTCLDY    30  27  86 N2        30.16S
TORONTO        CLOUDY    52  19  28 SE5       30.18F
BIG TROUT LK   FLURRIES  27  23  86 N9        30.10R WCI  17
PICKLE LAKE    NOT AVBL
DRYDEN         CLEAR     39  28  65 NE3       30.16S
KENORA         PTCLDY    41  30  65 N6        30.19R
$$
                *** MANITOBA***

CITY           SKY/WX    TMP DP  RH WIND       PRES   REMARKS
BRANDON        PTCLDY    32  28  86 NW10      30.32R WCI  24
DAUPHIN        CLEAR     32  27  80 W8        30.31S WCI  25
ISLAND LAKE    FLURRIES  25  19  80 N14       30.22R WCI  13
PILOT MOUND      N/A     39  28  65 NW7         N/A
THE PAS        CLEAR     30  23  74 N5        30.34R
THOMPSON       FLURRIES  18  16  93 NW5       30.33R WCI  11
WINNIPEG       PTCLDY    37  30  75 NE10G17   30.28R
LYNN LAKE      CLEAR     16  16 100 SW3       30.29F
CHURCHILL      PTCLDY    14  12  92 NW9       30.31R WCI   2
GILLAM         LGT SNOW  18  14  86 N14       30.27R VSB 5/8 WCI   4
$$
                ***SASKATCHEWAN***

CITY           SKY/WX    TMP DP  RH WIND       PRES   REMARKS
ESTEVAN        MOCLDY    32  23  69 N6        30.37R
KINDERSLEY     CLEAR     37  28  70 SW6       30.36R
LLOYDMINSTER   CLEAR     39  27  60 S9        30.30S
PRINCE ALBERT  CLEAR     32  23  69 VRB2      30.34R
REGINA         CLEAR     34  23  64 SW5       30.38R
YORKTON        CLEAR     36  25  64 W8        30.34R
N. BATTLEFORD  CLEAR     30  19  64 S3        30.35S
LA RONGE       CLEAR     32  27  80 S3        30.33S
SASKATOON      CLEAR     36  27  69 SW7       30.36R
SWIFT CURRENT  CLEAR     37  23  56 S6        30.38S
$$
NOTE: THESE ARE AUTOMATED STATIONS WITH LIMITED QUALITY CONTROL
      "FAIR" INDICATES FEW OR NO CLOUDS BELOW 12,000 FEET WITH NO
      SIGNIFICANT WEATHER AND/OR OBSTRUCTIONS TO VISIBILITY.
      SKY/WX - SKY CONDITION AND SIGNIFICANT WEATHER.
      TMP - AIR TEMPERATURE.    DP   - DEWPOINT TEMPERATURE.
      RH  - RELATIVE HUMIDITY.  PRES - PRESSURE.
      HX  - HEAT INDEX.         WCI  - WIND CHILL INDEX.
$




USA.gov is the U.S. government's official web portal to all federal, state and local government web resources and services.